(°C)
(°C)
-4°
-4°
-3°
-2°
-0°
ჩდ
ჩჩდ
ჩჩდ
ჩჩდ
ჩრ.
ჩრ.
ჩრ.
(კმ/სთ)
4-13
5-12
5-13
6-13
8-14
10-17
12-19
(მმ)
0
0
0
0
0
0
0
(%)
0
0
0
0
0
0
0

მზის სიმაღლე

/ -11.2°
sun-icon
UV 1
06:56
19:18
სავსე მთვარე (187°)
19:48
06:52

METAR 51.02°ჩრ. 71.47°აღმ. (UACC)-თვის

დრო პირობები ტემპერატურა/
ნამი
ქარი ხილვადობა ამინდი ღრუბლები წნევა ცვლილება დაუმუშავებელი
VFR 0°C / -3°C 290º 6kt >10km - Clouds and Visibility OK 1021 No Significant change. Runway 22: Clear and dry, , friction coefficient 0.70. UACC 202330Z 29003MPS CAVOK M00/M03 Q1021 R22/0///70 NOSIG RMK QFE734/0979
VFR 0°C / -3°C 280º 6kt >10km - Clouds and Visibility OK 1021 No Significant change. Runway 22: Clear and dry, , friction coefficient 0.70. UACC 202300Z 28003MPS CAVOK M00/M03 Q1021 R22/0///70 NOSIG RMK QFE734/0979
VFR 0°C / -3°C 280º 8kt >10km - Clouds and Visibility OK 1021 No Significant change. Runway 04: Clear and dry, , friction coefficient 0.70. UACC 202230Z 28004MPS CAVOK 00/M03 Q1021 R04/0///70 NOSIG RMK QFE734/0979
VFR 1°C / -3°C 280º 6kt >10km - Clouds and Visibility OK 1021 No Significant change. Runway 04: Clear and dry, , friction coefficient 0.70. UACC 202200Z 28003MPS CAVOK 01/M03 Q1021 R04/0///70 NOSIG RMK QFE734/0979
VFR 1°C / -2°C 290º 8kt >10km - Clouds and Visibility OK 1021 Temporary: Visibility 3100. Mist . Few Clouds 400ft. RMK QFE734/0979 . Runway 04: Clear and dry, , friction coefficient 0.70. UACC 202130Z 29004MPS CAVOK 01/M02 Q1021 R04/0///70 TEMPO 3100 BR FEW004 RMK QFE734/0979
MVFR 1°C / -3°C 290º 6kt 5000m Smoke Vertical Visibility of 0ft. 1021 Temporary: Visibility 3100. Mist . Few Clouds 400ft. RMK QFE734/0979 . Runway 04: Clear and dry, , friction coefficient 0.70. UACC 202100Z 29003MPS 5000 FU NSC 01/M03 Q1021 R04/0///70 TEMPO 3100 BR FEW004 RMK QFE734/0979
MVFR 1°C / -3°C 300º 6kt 5000m Smoke Vertical Visibility of 0ft. 1021 Temporary: Visibility 3100. Mist . Few Clouds 400ft. RMK QFE734/0979 . Runway 04: Clear and dry, , friction coefficient 0.70. UACC 202030Z 30003MPS 5000 FU NSC 01/M03 Q1021 R04/0///70 TEMPO 3100 BR FEW004 RMK QFE734/0979
MVFR 1°C / -3°C 280º 6kt 7000m - Clear 1021 Temporary: Visibility 3100. Mist . Few Clouds 400ft. RMK QFE734/0979 . Runway 04: Clear and dry, , friction coefficient 0.70. UACC 202000Z 28003MPS 7000 NSC 01/M03 Q1021 R04/0///70 TEMPO 3100 BR FEW004 RMK QFE734/0979
MVFR 2°C / -3°C 290º 6kt 7000m - Clear 1021 Temporary: Visibility 3100. Mist . Few Clouds 400ft. RMK QFE734/0979 . Runway 04: Clear and dry, , friction coefficient 0.70. UACC 201930Z 29003MPS 7000 NSC 02/M03 Q1021 R04/0///70 TEMPO 3100 BR FEW004 RMK QFE734/0979
MVFR 2°C / -3°C 290º 6kt 7000m - Clear 1021 No Significant change. Runway 04: Clear and dry, , friction coefficient 0.70. UACC 201900Z 29003MPS 7000 NSC 02/M03 Q1021 R04/0///70 NOSIG RMK QFE734/0979
MVFR 3°C / -3°C 280º 6kt 7000m - Clear 1021 No Significant change. Runway 04: Clear and dry, , friction coefficient 0.70. UACC 201830Z 28003MPS 7000 NSC 03/M03 Q1021 R04/0///70 NOSIG RMK QFE734/0979
VFR 3°C / -3°C 310º 4kt >10km - Clouds and Visibility OK 1021 No Significant change. Runway 04: Clear and dry, , friction coefficient 0.70. UACC 201800Z 31002MPS CAVOK 03/M03 Q1021 R04/0///70 NOSIG RMK QFE734/0979
VFR 3°C / -3°C 290º 4kt >10km - Clouds and Visibility OK 1021 No Significant change. Runway 04: Clear and dry, , friction coefficient 0.70. UACC 201730Z 29002MPS CAVOK 03/M03 Q1021 R04/0///70 NOSIG RMK QFE734/0979
VFR 4°C / -3°C 290º 4kt >10km - Clouds and Visibility OK 1021 No Significant change. Runway 04: Clear and dry, , friction coefficient 0.70. UACC 201700Z 29002MPS CAVOK 04/M03 Q1021 R04/0///70 NOSIG RMK QFE734/0979
VFR 4°C / -3°C 320º 4kt >10km - Clouds and Visibility OK 1021 No Significant change. Runway 04: Clear and dry, , friction coefficient 0.70. UACC 201630Z 32002MPS CAVOK 04/M03 Q1021 R04/0///70 NOSIG RMK QFE734/0979
VFR 3°C / -2°C 320º variable 280º to 360º 4kt >10km - Clouds and Visibility OK 1021 No Significant change. Runway 04: Clear and dry, , friction coefficient 0.70. UACC 201600Z 32002MPS 280V360 CAVOK 03/M02 Q1021 R04/0///70 NOSIG RMK QFE734/0979
VFR 4°C / -2°C 300º 6kt >10km - Clouds and Visibility OK 1020 No Significant change. Runway 04: Clear and dry, , friction coefficient 0.70. UACC 201530Z 30003MPS CAVOK 04/M02 Q1020 R04/0///70 NOSIG RMK QFE734/0978
VFR 5°C / -3°C 280º variable 250º to 310º 4kt >10km - Clouds and Visibility OK 1020 No Significant change. Runway 04: Clear and dry, , friction coefficient 0.70. UACC 201500Z 28002MPS 250V310 CAVOK 05/M03 Q1020 R04/0///70 NOSIG RMK QFE734/0978
VFR 5°C / -3°C 320º variable 200º to 360º 6kt Gust 16kt >10km - Clouds and Visibility OK 1020 No Significant change. Runway 04: Clear and dry, , friction coefficient 0.70. UACC 201430Z 32003G08MPS 200V360 CAVOK 05/M03 Q1020 R04/0///70 NOSIG RMK QFE734/0978
VFR 6°C / -3°C 340º 10kt >10km - Clouds and Visibility OK 1020 No Significant change. Runway 22: Clear and dry, , friction coefficient 0.70. UACC 201400Z 34005MPS CAVOK 06/M03 Q1020 R22/0///70 NOSIG RMK QFE734/0978
VFR 6°C / -3°C 320º variable 300º to 360º 8kt >10km - Clouds and Visibility OK 1020 No Significant change. Runway 22: Clear and dry, , friction coefficient 0.70. UACC 201330Z 32004MPS 300V360 CAVOK 06/M03 Q1020 R22/0///70 NOSIG RMK QFE734/0978
VFR 7°C / -3°C 320º 8kt >10km - Clouds and Visibility OK 1020 No Significant change. Runway 22: Clear and dry, , friction coefficient 0.70. UACC 201300Z 32004MPS CAVOK 07/M03 Q1020 R22/0///70 NOSIG RMK QFE733/0978
VFR 7°C / -3°C 320º variable 290º to 350º 12kt >10km - Clouds and Visibility OK 1019 No Significant change. Runway 22: Clear and dry, , friction coefficient 0.70. UACC 201230Z 32006MPS 290V350 CAVOK 07/M03 Q1019 R22/0///70 NOSIG RMK QFE733/0978
VFR 8°C / -2°C 310º 12kt >10km - Scattered Clouds 4600ft 1019 No Significant change. Runway 22: Clear and dry, , friction coefficient 0.70. UACC 201200Z 31006MPS 9999 SCT046 08/M02 Q1019 R22/0///70 NOSIG RMK QFE733/0977

VFR

0°C / -3°C

[მეტი]
ქარი 290º 6kt
ხილვადობა >10km
ამინდი -
ღრუბლები Clouds and Visibility OK
წნევა 1021
ცვლილება No Significant change. Runway 22: Clear and dry, , friction coefficient 0.70.
დაუმუშავებელი UACC 202330Z 29003MPS CAVOK M00/M03 Q1021 R22/0///70 NOSIG RMK QFE734/0979

VFR

0°C / -3°C

[მეტი]
ქარი 280º 6kt
ხილვადობა >10km
ამინდი -
ღრუბლები Clouds and Visibility OK
წნევა 1021
ცვლილება No Significant change. Runway 22: Clear and dry, , friction coefficient 0.70.
დაუმუშავებელი UACC 202300Z 28003MPS CAVOK M00/M03 Q1021 R22/0///70 NOSIG RMK QFE734/0979

VFR

0°C / -3°C

[მეტი]
ქარი 280º 8kt
ხილვადობა >10km
ამინდი -
ღრუბლები Clouds and Visibility OK
წნევა 1021
ცვლილება No Significant change. Runway 04: Clear and dry, , friction coefficient 0.70.
დაუმუშავებელი UACC 202230Z 28004MPS CAVOK 00/M03 Q1021 R04/0///70 NOSIG RMK QFE734/0979

VFR

1°C / -3°C

[მეტი]
ქარი 280º 6kt
ხილვადობა >10km
ამინდი -
ღრუბლები Clouds and Visibility OK
წნევა 1021
ცვლილება No Significant change. Runway 04: Clear and dry, , friction coefficient 0.70.
დაუმუშავებელი UACC 202200Z 28003MPS CAVOK 01/M03 Q1021 R04/0///70 NOSIG RMK QFE734/0979

VFR

1°C / -2°C

[მეტი]
ქარი 290º 8kt
ხილვადობა >10km
ამინდი -
ღრუბლები Clouds and Visibility OK
წნევა 1021
ცვლილება Temporary: Visibility 3100. Mist . Few Clouds 400ft. RMK QFE734/0979 . Runway 04: Clear and dry, , friction coefficient 0.70.
დაუმუშავებელი UACC 202130Z 29004MPS CAVOK 01/M02 Q1021 R04/0///70 TEMPO 3100 BR FEW004 RMK QFE734/0979

MVFR

1°C / -3°C

[მეტი]
ქარი 290º 6kt
ხილვადობა 5000m
ამინდი Smoke
ღრუბლები Vertical Visibility of 0ft.
წნევა 1021
ცვლილება Temporary: Visibility 3100. Mist . Few Clouds 400ft. RMK QFE734/0979 . Runway 04: Clear and dry, , friction coefficient 0.70.
დაუმუშავებელი UACC 202100Z 29003MPS 5000 FU NSC 01/M03 Q1021 R04/0///70 TEMPO 3100 BR FEW004 RMK QFE734/0979

MVFR

1°C / -3°C

[მეტი]
ქარი 300º 6kt
ხილვადობა 5000m
ამინდი Smoke
ღრუბლები Vertical Visibility of 0ft.
წნევა 1021
ცვლილება Temporary: Visibility 3100. Mist . Few Clouds 400ft. RMK QFE734/0979 . Runway 04: Clear and dry, , friction coefficient 0.70.
დაუმუშავებელი UACC 202030Z 30003MPS 5000 FU NSC 01/M03 Q1021 R04/0///70 TEMPO 3100 BR FEW004 RMK QFE734/0979

MVFR

1°C / -3°C

[მეტი]
ქარი 280º 6kt
ხილვადობა 7000m
ამინდი -
ღრუბლები Clear
წნევა 1021
ცვლილება Temporary: Visibility 3100. Mist . Few Clouds 400ft. RMK QFE734/0979 . Runway 04: Clear and dry, , friction coefficient 0.70.
დაუმუშავებელი UACC 202000Z 28003MPS 7000 NSC 01/M03 Q1021 R04/0///70 TEMPO 3100 BR FEW004 RMK QFE734/0979

MVFR

2°C / -3°C

[მეტი]
ქარი 290º 6kt
ხილვადობა 7000m
ამინდი -
ღრუბლები Clear
წნევა 1021
ცვლილება Temporary: Visibility 3100. Mist . Few Clouds 400ft. RMK QFE734/0979 . Runway 04: Clear and dry, , friction coefficient 0.70.
დაუმუშავებელი UACC 201930Z 29003MPS 7000 NSC 02/M03 Q1021 R04/0///70 TEMPO 3100 BR FEW004 RMK QFE734/0979

MVFR

2°C / -3°C

[მეტი]
ქარი 290º 6kt
ხილვადობა 7000m
ამინდი -
ღრუბლები Clear
წნევა 1021
ცვლილება No Significant change. Runway 04: Clear and dry, , friction coefficient 0.70.
დაუმუშავებელი UACC 201900Z 29003MPS 7000 NSC 02/M03 Q1021 R04/0///70 NOSIG RMK QFE734/0979

MVFR

3°C / -3°C

[მეტი]
ქარი 280º 6kt
ხილვადობა 7000m
ამინდი -
ღრუბლები Clear
წნევა 1021
ცვლილება No Significant change. Runway 04: Clear and dry, , friction coefficient 0.70.
დაუმუშავებელი UACC 201830Z 28003MPS 7000 NSC 03/M03 Q1021 R04/0///70 NOSIG RMK QFE734/0979

VFR

3°C / -3°C

[მეტი]
ქარი 310º 4kt
ხილვადობა >10km
ამინდი -
ღრუბლები Clouds and Visibility OK
წნევა 1021
ცვლილება No Significant change. Runway 04: Clear and dry, , friction coefficient 0.70.
დაუმუშავებელი UACC 201800Z 31002MPS CAVOK 03/M03 Q1021 R04/0///70 NOSIG RMK QFE734/0979

VFR

3°C / -3°C

[მეტი]
ქარი 290º 4kt
ხილვადობა >10km
ამინდი -
ღრუბლები Clouds and Visibility OK
წნევა 1021
ცვლილება No Significant change. Runway 04: Clear and dry, , friction coefficient 0.70.
დაუმუშავებელი UACC 201730Z 29002MPS CAVOK 03/M03 Q1021 R04/0///70 NOSIG RMK QFE734/0979

VFR

4°C / -3°C

[მეტი]
ქარი 290º 4kt
ხილვადობა >10km
ამინდი -
ღრუბლები Clouds and Visibility OK
წნევა 1021
ცვლილება No Significant change. Runway 04: Clear and dry, , friction coefficient 0.70.
დაუმუშავებელი UACC 201700Z 29002MPS CAVOK 04/M03 Q1021 R04/0///70 NOSIG RMK QFE734/0979

VFR

4°C / -3°C

[მეტი]
ქარი 320º 4kt
ხილვადობა >10km
ამინდი -
ღრუბლები Clouds and Visibility OK
წნევა 1021
ცვლილება No Significant change. Runway 04: Clear and dry, , friction coefficient 0.70.
დაუმუშავებელი UACC 201630Z 32002MPS CAVOK 04/M03 Q1021 R04/0///70 NOSIG RMK QFE734/0979

VFR

3°C / -2°C

[მეტი]
ქარი 320º variable 280º to 360º 4kt
ხილვადობა >10km
ამინდი -
ღრუბლები Clouds and Visibility OK
წნევა 1021
ცვლილება No Significant change. Runway 04: Clear and dry, , friction coefficient 0.70.
დაუმუშავებელი UACC 201600Z 32002MPS 280V360 CAVOK 03/M02 Q1021 R04/0///70 NOSIG RMK QFE734/0979

VFR

4°C / -2°C

[მეტი]
ქარი 300º 6kt
ხილვადობა >10km
ამინდი -
ღრუბლები Clouds and Visibility OK
წნევა 1020
ცვლილება No Significant change. Runway 04: Clear and dry, , friction coefficient 0.70.
დაუმუშავებელი UACC 201530Z 30003MPS CAVOK 04/M02 Q1020 R04/0///70 NOSIG RMK QFE734/0978

VFR

5°C / -3°C

[მეტი]
ქარი 280º variable 250º to 310º 4kt
ხილვადობა >10km
ამინდი -
ღრუბლები Clouds and Visibility OK
წნევა 1020
ცვლილება No Significant change. Runway 04: Clear and dry, , friction coefficient 0.70.
დაუმუშავებელი UACC 201500Z 28002MPS 250V310 CAVOK 05/M03 Q1020 R04/0///70 NOSIG RMK QFE734/0978

VFR

5°C / -3°C

[მეტი]
ქარი 320º variable 200º to 360º 6kt Gust 16kt
ხილვადობა >10km
ამინდი -
ღრუბლები Clouds and Visibility OK
წნევა 1020
ცვლილება No Significant change. Runway 04: Clear and dry, , friction coefficient 0.70.
დაუმუშავებელი UACC 201430Z 32003G08MPS 200V360 CAVOK 05/M03 Q1020 R04/0///70 NOSIG RMK QFE734/0978

VFR

6°C / -3°C

[მეტი]
ქარი 340º 10kt
ხილვადობა >10km
ამინდი -
ღრუბლები Clouds and Visibility OK
წნევა 1020
ცვლილება No Significant change. Runway 22: Clear and dry, , friction coefficient 0.70.
დაუმუშავებელი UACC 201400Z 34005MPS CAVOK 06/M03 Q1020 R22/0///70 NOSIG RMK QFE734/0978

VFR

6°C / -3°C

[მეტი]
ქარი 320º variable 300º to 360º 8kt
ხილვადობა >10km
ამინდი -
ღრუბლები Clouds and Visibility OK
წნევა 1020
ცვლილება No Significant change. Runway 22: Clear and dry, , friction coefficient 0.70.
დაუმუშავებელი UACC 201330Z 32004MPS 300V360 CAVOK 06/M03 Q1020 R22/0///70 NOSIG RMK QFE734/0978

VFR

7°C / -3°C

[მეტი]
ქარი 320º 8kt
ხილვადობა >10km
ამინდი -
ღრუბლები Clouds and Visibility OK
წნევა 1020
ცვლილება No Significant change. Runway 22: Clear and dry, , friction coefficient 0.70.
დაუმუშავებელი UACC 201300Z 32004MPS CAVOK 07/M03 Q1020 R22/0///70 NOSIG RMK QFE733/0978

VFR

7°C / -3°C

[მეტი]
ქარი 320º variable 290º to 350º 12kt
ხილვადობა >10km
ამინდი -
ღრუბლები Clouds and Visibility OK
წნევა 1019
ცვლილება No Significant change. Runway 22: Clear and dry, , friction coefficient 0.70.
დაუმუშავებელი UACC 201230Z 32006MPS 290V350 CAVOK 07/M03 Q1019 R22/0///70 NOSIG RMK QFE733/0978

VFR

8°C / -2°C

[მეტი]
ქარი 310º 12kt
ხილვადობა >10km
ამინდი -
ღრუბლები Scattered Clouds 4600ft
წნევა 1019
ცვლილება No Significant change. Runway 22: Clear and dry, , friction coefficient 0.70.
დაუმუშავებელი UACC 201200Z 31006MPS 9999 SCT046 08/M02 Q1019 R22/0///70 NOSIG RMK QFE733/0977

TAF 51.02°ჩრ. 71.47°აღმ. (UACC)-თვის

From till


Maximum Temperature 9ºC on . Minimum Temperature -0ºC on .
From till Wind 340º 12kt. Visibility 10km or more. Scattered Clouds 4000ft. Broken Clouds 10000ft.
Temporarly from till Wind 290º 6kt.
Temporarly from till Scattered Clouds 3000ft.

დაუმუშავებელი: TAF UACC 202300Z 2100/2124 34006MPS 9999 SCT040 BKN100 TX09/2109Z TNM00/2101Z TEMPO 2100/2104 29003MPS TEMPO 2104/2112 SCT030CB

მიმდინარე სატელიტისა და წვიმის სურათები 51.02°ჩრ. 71.47°აღმ.-თვის

ლოკაციის მარკერი დაყენებყლია 51.02°ჩრ. 71.47°აღმ.ზე. [მეტი]

რეალურ დროში სატელიტური სურათი აერთიანებს ხილულ სინათლეს დღისით ღამის განმავლობაში ინფრაწითელ გამოსხივებასთან ერთად. ღამით, სურათი არ არის მუქი, რადგან ინფრაწითელ გამოსხივებას შეუძლია ტემპერატურის განსხვავებების დადგენა. სამწუხაროდ, დაბალი ღრუბლები და ნისლი ძნელია განასხვავონ მიწის ტემპერატურისგან და, შესაბამისად, ისინი შეიძლება თითქმის არ ჩანდეს ღამით. Meteosat სატელიტური გამოსახულება ევროპისთვის ახლდება რეალურ დროში ყოველ 5 წუთში. GOES-16/GOES-17 (ჩრდილოეთი და სამხრეთ ამერიკა) და ჰიმავარი (აზია) გამოსახულებები ახლდება ყოველ 10 წუთში.

საავტორო უფლებები 2021 EUMETSAT / meteoblue. / საავტორო უფლებები 2021 meteoblue

რადარის და ნალექების მაჩვენებელი 51.02°ჩრ. 71.47°აღმ. -თვის

გაწურეთ
Მსუბუქი
ზომიერი
Მძიმე
Ძალიან მძიმე
სეტყვა

მდებარეობის მარკერი მოთავსებულია 51.02°ჩრ. 71.47°აღმ. -ზე. ეს ანიმაცია აჩვენებს ნალექების სარადარო მონაცემებს როგორც ბოლო საათის განმავლობაში, ასევე 1h პროგნოზს. წვიმა ან თოვლის მსუბუქი ვარდნა შეიძლება უჩინარი იყოს რადარისთვის. ნალექების ინტენსივობა არის კოდირებული ფერით, დაწყებული ღია ლურჯიდან ნარინჯისფერამდე.